EW5309 Kensington MD US current weather conditions

sailwx.info

Wind from 209

Last reported at 2020-Aug-12 00:09 UTC.
Time now 2020-Aug-12 00:53 UTC

Location: N 39°02' W 077°05'.
View on Google Maps.

See reports from other nearby stations

  
Tides and Currents Weather Stations Pressure Air Temp Water Temp Dewpoint Dewpoint Depression Visibility Wind Speed Wind Dir Waves Ship Positions
date/time (UTC)wind fromknots sea level pressurealtimeterstation pressurevisibilityair tempwater tempwave heightnotes
2020-Aug-12 00:09 209
2020-Aug-12 00:04 209
2020-Aug-11 23:59 209
2020-Aug-11 23:54 209
2020-Aug-11 23:49 209
2020-Aug-11 23:44 209
2020-Aug-11 23:39 209 30.0
2020-Aug-11 23:34 209 30.0
2020-Aug-11 23:29 157 30.0
2020-Aug-11 23:24 144 30.6
2020-Aug-11 23:19 189 30.6
2020-Aug-11 23:14 200
2020-Aug-11 23:09 141
2020-Aug-11 23:04 141 31.1
2020-Aug-11 22:59 223 31.1
2020-Aug-11 22:54 223 31.1
2020-Aug-11 22:49 172 31.7
2020-Aug-11 22:44 262 31.7
2020-Aug-11 22:39 148 31.7
2020-Aug-11 22:34 169 32.2
2020-Aug-11 22:29 175 32.2
2020-Aug-11 22:24 155 32.2
2020-Aug-11 22:19 148 32.2
2020-Aug-11 22:14 216 32.8
2020-Aug-11 22:09 204 32.8
2020-Aug-11 22:04 173 32.8
2020-Aug-11 21:59 155 32.2
2020-Aug-11 21:54 183 32.2
2020-Aug-11 21:49 209
2020-Aug-11 21:44 157
2020-Aug-11 21:39 145
2020-Aug-11 21:34 164 32.2
2020-Aug-11 21:29 169 32.2
2020-Aug-11 21:24 206 32.2
2020-Aug-11 21:19 196
2020-Aug-11 21:14 178
2020-Aug-11 21:09 147
2020-Aug-11 21:04 176
2020-Aug-11 20:59 148 33.3
2020-Aug-11 20:54 196 33.3
2020-Aug-11 20:49 149 33.3
2020-Aug-11 20:44 207
2020-Aug-11 20:39 188
2020-Aug-11 20:34 140
2020-Aug-11 20:29 134 32.8
2020-Aug-11 20:24 206 32.8
2020-Aug-11 20:19 165
2020-Aug-11 20:14 195
2020-Aug-11 20:09 195
2020-Aug-11 20:04 306 33.9
2020-Aug-11 19:59 188 33.9
2020-Aug-11 19:54 161 33.9
2020-Aug-11 19:49 196 34.4
2020-Aug-11 19:44 193 34.4
2020-Aug-11 19:39 269 34.4
2020-Aug-11 19:34 152 33.9
2020-Aug-11 19:29 183 33.9
2020-Aug-11 19:24 144 33.9
2020-Aug-11 19:19 286 33.9
2020-Aug-11 19:14 237 33.9
2020-Aug-11 19:09 138 33.9
2020-Aug-11 19:04 265 33.3
2020-Aug-11 18:59 193 33.3
2020-Aug-11 18:54 188 33.3
2020-Aug-11 18:49 168 33.3
2020-Aug-11 18:44 148 32.8
2020-Aug-11 18:39 169 32.8
2020-Aug-11 18:34 353 32.2
2020-Aug-11 18:29 252 32.2
2020-Aug-11 18:24 213 32.8
2020-Aug-11 18:19 142 32.8
2020-Aug-11 18:14 151 32.2
2020-Aug-11 18:09 199 32.2
2020-Aug-11 18:04 159 32.2
2020-Aug-11 17:59 154 32.8
2020-Aug-11 17:54 149 32.8
2020-Aug-11 17:49 134 32.8
2020-Aug-11 17:44 180 32.2
2020-Aug-11 17:39 172 32.2
2020-Aug-11 17:34 148 32.2
2020-Aug-11 17:29 162 32.2
2020-Aug-11 17:24 155 32.2
2020-Aug-11 17:19 199 32.2
2020-Aug-11 17:14 171 32.2
2020-Aug-11 17:09 169 32.2
2020-Aug-11 17:04 254 32.2
2020-Aug-11 16:59 147 32.2
2020-Aug-11 16:54 134 31.7
2020-Aug-11 16:49 140 31.7
2020-Aug-11 16:44 176 31.7
2020-Aug-11 16:39 169 31.1
2020-Aug-11 16:34 183 31.1
2020-Aug-11 16:29 176 30.6
2020-Aug-11 16:24 157 30.6
2020-Aug-11 16:19 149 30.6
2020-Aug-11 16:14 149
2020-Aug-11 16:09 149 30.6
2020-Aug-11 16:04 213 30.6
2020-Aug-11 15:59 157 30.6
2020-Aug-11 15:54 154 30.6
2020-Aug-11 15:49 271 30.6
2020-Aug-11 15:44 262 30.6
2020-Aug-11 15:39 199 30.0
2020-Aug-11 15:34 147 30.0
2020-Aug-11 15:29 206 30.0
2020-Aug-11 15:24 240 29.4
2020-Aug-11 15:19 248 29.4
2020-Aug-11 15:14 248 29.4
2020-Aug-11 15:09 248 29.4
2020-Aug-11 15:04 147 29.4
2020-Aug-11 14:59 168 29.4
2020-Aug-11 14:54 171 28.9
2020-Aug-11 14:49 197 28.9
2020-Aug-11 14:44 197 28.3
2020-Aug-11 14:39 158 28.3
2020-Aug-11 14:34 158 27.8
2020-Aug-11 14:29 159 27.8
2020-Aug-11 14:24 159 27.2
2020-Aug-11 14:19 159 26.7
2020-Aug-11 14:14 172 25.6
2020-Aug-11 14:09 182 25.6
2020-Aug-11 14:04 161 25.6
2020-Aug-11 13:59
2020-Aug-11 13:53
2020-Aug-11 13:48 165 24.4
2020-Aug-11 13:43 165 24.4
2020-Aug-11 13:38 165 24.4
2020-Aug-11 13:33 168 24.4
2020-Aug-11 13:28 176 24.4
2020-Aug-11 13:23 176 24.4
2020-Aug-11 13:18 178 24.4
2020-Aug-11 13:13 178 24.4
2020-Aug-11 13:08 178 23.9
2020-Aug-11 13:03 165 23.9
2020-Aug-11 12:58 165 23.9
2020-Aug-11 12:53 168 23.9
2020-Aug-11 12:48 171 23.9
2020-Aug-11 12:43 179 23.9
2020-Aug-11 12:38 179 23.9
2020-Aug-11 12:33 179 23.9
2020-Aug-11 12:28 179 23.9
2020-Aug-11 12:23 179 23.3
2020-Aug-11 12:18 179 23.3
2020-Aug-11 12:13 179 23.3
2020-Aug-11 12:08 179 23.3
2020-Aug-11 12:03 179 23.3
2020-Aug-11 11:58 179 23.3
2020-Aug-11 11:53 179 23.3
2020-Aug-11 11:48 179 22.8
2020-Aug-11 11:43 179 22.8
2020-Aug-11 11:38 179 22.8
2020-Aug-11 11:33 179 22.8
2020-Aug-11 11:28 179 22.8
2020-Aug-11 11:23 179 22.8
2020-Aug-11 11:18 179 22.8
2020-Aug-11 11:13 179 22.8
2020-Aug-11 11:08 179 22.8
2020-Aug-11 11:03 179 22.8
2020-Aug-11 10:58 179 22.8
2020-Aug-11 10:53 179 22.8
2020-Aug-11 10:48 179 22.8
2020-Aug-11 10:43 179 22.8
2020-Aug-11 10:38 179 22.8
2020-Aug-11 10:33 179 22.8
2020-Aug-11 10:28 179 22.8
2020-Aug-11 10:23 179 22.8
2020-Aug-11 10:18 179 22.8
2020-Aug-11 10:13 179 22.8
2020-Aug-11 10:08 179 22.8
2020-Aug-11 10:03 179 22.8
2020-Aug-11 09:58 179 22.8
2020-Aug-11 09:53 179 22.8
2020-Aug-11 09:48 179 22.8
2020-Aug-11 09:43 179 22.8
2020-Aug-11 09:38 179 22.8
2020-Aug-11 09:33 179 22.8
2020-Aug-11 09:28 179 22.8
2020-Aug-11 09:23 179 22.8
2020-Aug-11 09:18 179 22.8
2020-Aug-11 09:13 179 22.8
2020-Aug-11 09:08 179 22.8
2020-Aug-11 09:03 179 22.8
2020-Aug-11 08:58 179 22.8
2020-Aug-11 08:53 179 22.8
2020-Aug-11 08:48 179 22.8
2020-Aug-11 08:43 179 22.8
2020-Aug-11 08:38 179 22.8
2020-Aug-11 08:33 179 22.8
2020-Aug-11 08:28 179 22.8
2020-Aug-11 08:23 179 22.8
2020-Aug-11 08:18 179 22.8
2020-Aug-11 08:13 179 22.8
2020-Aug-11 08:08 179 22.8
2020-Aug-11 08:03 179 22.8
2020-Aug-11 07:58 179 22.8
2020-Aug-11 07:53 179 22.8
2020-Aug-11 07:48 179 22.8
2020-Aug-11 07:43 179 22.8
2020-Aug-11 07:38 179 22.8
2020-Aug-11 07:33 179 22.8
2020-Aug-11 07:28 179 22.8
2020-Aug-11 07:23 179 22.8
2020-Aug-11 07:18 179 23.3
2020-Aug-11 07:13 179 23.3
2020-Aug-11 07:08 179 23.3
2020-Aug-11 07:03 179 23.3
2020-Aug-11 06:58 179 23.3
2020-Aug-11 06:53 179 23.3
2020-Aug-11 06:48 179 23.3
2020-Aug-11 06:43 179 23.3
2020-Aug-11 06:38 179 23.3
2020-Aug-11 06:33 179 23.3
2020-Aug-11 06:28 179 23.3
2020-Aug-11 06:23 179 23.3
2020-Aug-11 06:18 179 23.3
2020-Aug-11 06:13 179 23.3
2020-Aug-11 06:08 179 23.3
2020-Aug-11 06:03 179 23.3
2020-Aug-11 05:58 179 23.3
2020-Aug-11 05:53 179 23.3
2020-Aug-11 05:48 179 23.3
2020-Aug-11 05:43 179 23.3
2020-Aug-11 05:38 179 23.3
2020-Aug-11 05:33 179 23.3
2020-Aug-11 05:28 179 23.3
2020-Aug-11 05:23 179 23.3
2020-Aug-11 05:18 179 23.3
2020-Aug-11 05:13 179 23.3
2020-Aug-11 05:08 179 23.3
2020-Aug-11 05:03 179 23.9
2020-Aug-11 04:58 179 23.9
2020-Aug-11 04:53 179 23.9
2020-Aug-11 04:48 179 23.9
2020-Aug-11 04:43 179 23.9
2020-Aug-11 04:38 179 23.9
2020-Aug-11 04:33 179 23.9
2020-Aug-11 04:28 179 23.9
2020-Aug-11 04:23 179
2020-Aug-11 04:18 179
2020-Aug-11 04:13 179 23.9
2020-Aug-11 04:08 179 23.9
2020-Aug-11 04:03 179 23.9
2020-Aug-11 03:58 179 23.9
2020-Aug-11 03:53 179 24.4
2020-Aug-11 03:48 179 24.4
2020-Aug-11 03:43 179 24.4
2020-Aug-11 03:38 179 24.4
2020-Aug-11 03:33 179
2020-Aug-11 03:28 179
2020-Aug-11 03:23 179 24.4
2020-Aug-11 03:18 179 24.4
2020-Aug-11 03:13 179 24.4
2020-Aug-11 03:08 179 24.4
2020-Aug-11 03:03 179 24.4
2020-Aug-11 02:58 179 24.4
2020-Aug-11 02:53 179 25.0
2020-Aug-11 02:48 179 25.0
2020-Aug-11 02:43 179 25.0
2020-Aug-11 02:38 179 25.0
2020-Aug-11 02:33 179 25.0
2020-Aug-11 02:28 179
2020-Aug-11 02:23 179 25.6
2020-Aug-11 02:18 179 25.6
2020-Aug-11 02:13 179 25.6
2020-Aug-11 02:08 179 25.6
2020-Aug-11 02:03 179 25.6
2020-Aug-11 01:58 179 25.6
2020-Aug-11 01:53 179 25.6
2020-Aug-11 01:48 179 25.6
2020-Aug-11 01:43 179 25.6
2020-Aug-11 01:38 179 26.1
2020-Aug-11 01:33 179 26.1
2020-Aug-11 01:28 179 26.1
2020-Aug-11 01:23 179 26.1
2020-Aug-11 01:18 179 26.1
2020-Aug-11 01:13 179 26.1
2020-Aug-11 01:08 179 26.7
2020-Aug-11 01:03 179 26.7
2020-Aug-11 00:58 179 26.7
2020-Aug-11 00:53 179 26.7
2020-Aug-11 00:48 179 26.7
2020-Aug-11 00:43 179 26.7
2020-Aug-11 00:38 179 26.7
2020-Aug-11 00:33 179 27.2
2020-Aug-11 00:28 179 27.2
2020-Aug-11 00:23 179 27.2
2020-Aug-11 00:18 179 27.8
2020-Aug-11 00:13 179 27.8
2020-Aug-11 00:08 179 27.8
2020-Aug-11 00:03 179 28.3
2020-Aug-10 23:58 179 28.3
2020-Aug-10 23:53 179 28.9
2020-Aug-10 23:48 179 28.9
2020-Aug-10 23:43 179 28.9
2020-Aug-10 23:38 179 29.4
2020-Aug-10 23:33 179 29.4
2020-Aug-10 23:28 180 29.4
2020-Aug-10 23:23 195 30.0
2020-Aug-10 23:18 152 30.0
2020-Aug-10 23:13 152 30.6
2020-Aug-10 23:08 152 30.6
2020-Aug-10 23:03 152 30.6
2020-Aug-10 22:58 152 31.1
2020-Aug-10 22:48 152 31.1
2020-Aug-10 22:43 152 31.1
2020-Aug-10 22:38 152 31.1
2020-Aug-10 22:33 149 31.7
2020-Aug-10 22:28 200 31.7
2020-Aug-10 22:23 200 31.7
2020-Aug-10 22:18 172 31.7
2020-Aug-10 22:13 151 31.7
2020-Aug-10 22:08 145 31.7
2020-Aug-10 22:03 148 32.2
2020-Aug-10 21:58 188 33.3
2020-Aug-10 21:53 178 33.3
2020-Aug-10 21:48 171 34.4
2020-Aug-10 21:43 206 35.0
2020-Aug-10 21:38 192 35.0
2020-Aug-10 21:33 192 35.0
2020-Aug-10 21:28 192 35.0
2020-Aug-10 21:23 193 35.0
2020-Aug-10 21:18 193 35.0
2020-Aug-10 21:13 193 35.0
2020-Aug-10 21:08 193 35.0
2020-Aug-10 21:03 193 35.0
2020-Aug-10 20:58 193 34.4
2020-Aug-10 20:53 193 34.4
2020-Aug-10 20:48 193 34.4
2020-Aug-10 20:43 193 33.9
2020-Aug-10 20:38 193 33.9
2020-Aug-10 20:33 193 32.8
2020-Aug-10 20:28 193 32.8
2020-Aug-10 20:23 193 32.8
2020-Aug-10 20:18 193 32.8
2020-Aug-10 20:13 193 32.2
2020-Aug-10 20:08 193 32.2
2020-Aug-10 20:03 193 32.2
2020-Aug-10 19:58 193 32.8
2020-Aug-10 19:53 193 32.8
2020-Aug-10 19:47 193 32.8
2020-Aug-10 19:42 193 32.8
2020-Aug-10 19:37 193 32.8
2020-Aug-10 19:32 172 32.8
2020-Aug-10 19:27 141 33.3
2020-Aug-10 19:22 196 33.3
2020-Aug-10 19:17 175 33.9
2020-Aug-10 19:12 195 34.4
2020-Aug-10 19:07 158 34.4
2020-Aug-10 19:02 138 35.0
2020-Aug-10 18:57 203 35.0
2020-Aug-10 18:52 188 35.0
2020-Aug-10 18:47 188 34.4
2020-Aug-10 18:42 188 34.4
2020-Aug-10 18:37 220 34.4
2020-Aug-10 18:32 252 33.9
2020-Aug-10 18:27 154 33.3
2020-Aug-10 18:22 162 33.3
2020-Aug-10 18:17 214 33.3
2020-Aug-10 18:12 010 32.8
2020-Aug-10 18:07 010 32.2
2020-Aug-10 18:02 010 32.2
2020-Aug-10 17:57 010 32.8
2020-Aug-10 17:52 192 32.8
2020-Aug-10 17:47 192 32.8
2020-Aug-10 17:42 192 32.8
2020-Aug-10 17:37 192 33.3
2020-Aug-10 17:32 192 33.3
2020-Aug-10 17:27 135 33.3
2020-Aug-10 17:22 149 32.8
2020-Aug-10 17:17 149 32.8
2020-Aug-10 17:12 149 33.3
2020-Aug-10 17:07 151 33.3
2020-Aug-10 17:02 151 33.3
2020-Aug-10 16:57 151 33.9
2020-Aug-10 16:52 151 33.9
2020-Aug-10 16:47 151 34.4
2020-Aug-10 16:42 155 33.9
2020-Aug-10 16:37 321 33.9
2020-Aug-10 16:32 33.9
2020-Aug-10 16:27 154 33.9
2020-Aug-10 16:22 151 33.3
2020-Aug-10 16:17 151 33.3
2020-Aug-10 16:12 151 32.8
2020-Aug-10 16:07 093 32.8
2020-Aug-10 16:02 302 32.8
2020-Aug-10 15:57 302 32.8
2020-Aug-10 15:52 345 32.8
2020-Aug-10 15:47 338 32.8
2020-Aug-10 15:42 340 32.8
2020-Aug-10 15:37 193 32.8
2020-Aug-10 15:32 193 32.8
2020-Aug-10 15:27 230 32.2
2020-Aug-10 15:22 166 32.2
2020-Aug-10 15:17 179 31.7
2020-Aug-10 15:12 135 31.7
2020-Aug-10 15:07 135 31.7
2020-Aug-10 15:02 006 31.1
2020-Aug-10 14:57 197 30.6
2020-Aug-10 14:52 173 30.6
2020-Aug-10 14:47 173 30.0
2020-Aug-10 14:42 037 30.0
2020-Aug-10 14:37 035 29.4
2020-Aug-10 14:32 035 29.4
2020-Aug-10 14:27 28.9
2020-Aug-10 14:22 28.3
2020-Aug-10 14:17 27.8
2020-Aug-10 14:12 27.2
2020-Aug-10 14:07 27.2
2020-Aug-10 14:02 26.7
2020-Aug-10 13:57 26.1
2020-Aug-10 13:52 127 25.6
2020-Aug-10 13:47 127 25.6
2020-Aug-10 13:42 127 25.0
2020-Aug-10 13:37 127 25.0
2020-Aug-10 13:32 127 25.0
2020-Aug-10 13:27 127 24.4
2020-Aug-10 13:22 127 24.4
2020-Aug-10 13:17 127 24.4
2020-Aug-10 13:12 127 24.4
2020-Aug-10 13:07 127 23.9
2020-Aug-10 13:02 111 23.9
2020-Aug-10 12:57 111 23.9
2020-Aug-10 12:52 111 23.9
2020-Aug-10 12:47 111 23.3
2020-Aug-10 12:42 111 23.3
2020-Aug-10 12:37 111 23.3
2020-Aug-10 12:32 111 23.3
2020-Aug-10 12:27 111 23.3
2020-Aug-10 12:22 111 22.8
2020-Aug-10 12:17 111 22.8
2020-Aug-10 12:12 056 22.8
2020-Aug-10 12:07 056 22.8
2020-Aug-10 12:02 056 22.2
2020-Aug-10 11:57 056 22.2
2020-Aug-10 11:52 056 22.2
2020-Aug-10 11:47 056 21.7
2020-Aug-10 11:42 056 21.7
2020-Aug-10 11:37 056 21.7
2020-Aug-10 11:32 056 21.7
2020-Aug-10 11:27 056 21.7
2020-Aug-10 11:22 056 21.7
2020-Aug-10 11:17 056 21.7
2020-Aug-10 11:12 056 21.7
2020-Aug-10 11:07 056 21.7
2020-Aug-10 11:02 056 21.7
2020-Aug-10 10:57 056 21.7
2020-Aug-10 10:52 056 21.7
2020-Aug-10 10:47 056 21.7
2020-Aug-10 10:42 056 21.7
2020-Aug-10 10:37 056 21.7
2020-Aug-10 10:32 056 21.7
2020-Aug-10 10:27 056 21.7
2020-Aug-10 10:22 180 21.7
2020-Aug-10 10:17 180 21.7
2020-Aug-10 10:12 180 21.7
2020-Aug-10 10:07 180 21.7
2020-Aug-10 10:02 180 22.2
2020-Aug-10 09:57 180 22.2
2020-Aug-10 09:52 180 22.2
2020-Aug-10 09:47 180 22.2
2020-Aug-10 09:42 180 22.2
2020-Aug-10 09:37 180 22.2
2020-Aug-10 09:32 180 22.2
2020-Aug-10 09:27 180 22.2
2020-Aug-10 09:22 180 22.2
2020-Aug-10 09:17 180 22.2
2020-Aug-10 09:12 180 22.2
2020-Aug-10 09:07 180 22.2
2020-Aug-10 09:02 180 22.8
2020-Aug-10 08:57 180 22.8
2020-Aug-10 08:52 180 22.8
2020-Aug-10 08:47 180
2020-Aug-10 08:42 180 22.8
2020-Aug-10 08:37 180 22.8
2020-Aug-10 08:32 180 22.8
2020-Aug-10 08:27 180 22.8
2020-Aug-10 08:22 180 22.8
2020-Aug-10 08:17 180 22.8
2020-Aug-10 08:12 180 22.8
2020-Aug-10 08:07 180 22.8
2020-Aug-10 08:02 180 22.8
2020-Aug-10 07:57 180 22.8
2020-Aug-10 07:52 180 22.8
2020-Aug-10 07:47 180 23.3
2020-Aug-10 07:42 180 23.3
2020-Aug-10 07:37 180 23.3
2020-Aug-10 07:32 180 23.3
2020-Aug-10 07:27 180 23.3
2020-Aug-10 07:22 180 23.3
2020-Aug-10 07:17 180 23.3
2020-Aug-10 07:12 180 23.3
2020-Aug-10 07:07 180 23.3
2020-Aug-10 07:02 180 23.3
2020-Aug-10 06:57 186 23.3
2020-Aug-10 06:52 186 23.3
2020-Aug-10 06:47 186 23.3
2020-Aug-10 06:42 186 23.3
2020-Aug-10 06:37 186 23.3
2020-Aug-10 06:32 186 23.3
2020-Aug-10 06:27 186 23.3
2020-Aug-10 06:22 186 23.3
2020-Aug-10 06:17 186 23.3
2020-Aug-10 06:12 186 23.3
2020-Aug-10 06:07 186 23.3
2020-Aug-10 06:02 186 23.9
2020-Aug-10 05:57 186 23.3
2020-Aug-10 05:52 186 23.9
2020-Aug-10 05:47 186 23.9
2020-Aug-10 05:42 186 23.9
2020-Aug-10 05:37 186 23.9
2020-Aug-10 05:32 186 23.9
2020-Aug-10 05:27 186 23.9
2020-Aug-10 05:22 186 23.9
2020-Aug-10 05:17 186 23.9
2020-Aug-10 05:12 186 23.9
2020-Aug-10 05:07 186 23.9
2020-Aug-10 05:02 186 23.9
2020-Aug-10 04:57 186 23.9
2020-Aug-10 04:52 186 23.9
2020-Aug-10 04:47 186 23.9
2020-Aug-10 04:42 186 23.9
2020-Aug-10 04:37 186 23.9
2020-Aug-10 04:32 186 23.9
2020-Aug-10 04:27 186 23.9
2020-Aug-10 04:22 186 24.4
2020-Aug-10 04:17 186 24.4
2020-Aug-10 04:12 186 24.4
2020-Aug-10 04:07 186 24.4
2020-Aug-10 04:02 186 24.4
2020-Aug-10 03:57 186 24.4
2020-Aug-10 03:52 186 24.4
2020-Aug-10 03:47 186 24.4
2020-Aug-10 03:42 186 24.4
2020-Aug-10 03:37 186 24.4
2020-Aug-10 03:32 186 24.4
2020-Aug-10 03:27 186 24.4
2020-Aug-10 03:22 186 24.4
2020-Aug-10 03:17 186 24.4
2020-Aug-10 03:12 186 25.0
2020-Aug-10 03:07 186 25.0
2020-Aug-10 03:02 186 25.0
2020-Aug-10 02:57 186 25.0
2020-Aug-10 02:52 186 25.0
2020-Aug-10 02:47 186 25.0
2020-Aug-10 02:42 186 25.0
2020-Aug-10 02:37 186 25.0
2020-Aug-10 02:32 186 25.6
2020-Aug-10 02:27 186 25.6
2020-Aug-10 02:22 186 25.6
2020-Aug-10 02:17 186 25.6
2020-Aug-10 02:12 186 25.6
2020-Aug-10 02:07 186 25.6
2020-Aug-10 02:02 186 25.6
2020-Aug-10 01:57 186 26.1
2020-Aug-10 01:52 186 26.1
2020-Aug-10 01:47 186 26.1
2020-Aug-10 01:42 186 26.1
2020-Aug-10 01:37 186 26.1
2020-Aug-10 01:32 186 26.1
2020-Aug-10 01:27 186 26.7
2020-Aug-10 01:22 186 26.7
2020-Aug-10 01:17 186 26.7
2020-Aug-10 01:12 186 26.7
2020-Aug-10 01:07 186 26.7
2020-Aug-10 01:02 186 27.2
2020-Aug-10 00:57 186 27.2
2020-Aug-10 00:52 186 27.2
2020-Aug-10 00:47 186 27.8
2020-Aug-10 00:42 186 27.8
2020-Aug-10 00:37 186 27.8
2020-Aug-10 00:32 186 28.3
2020-Aug-10 00:27 186 28.3
2020-Aug-10 00:22 186 28.3
2020-Aug-10 00:17 186 28.3
2020-Aug-10 00:12 186 28.9
2020-Aug-10 00:07 186 28.9
2020-Aug-10 00:02 186 29.4